Regional Weather Roundup
Issued by NWS Goodland, KS

Home | Current Version | Previous Version | Graphics & Text | Print | Product List | Glossary On
Versions: 1 2 3 4 5 6 7 8 9 10 11 12 13 14 15 16 17 18 19 20 21 22 23 24 25 26 27 28 29 30 31 32 33 34 35 36 37 38 39 40 41 42 43 44 45 46 47 48 49 50
000
ASUS43 KGLD 171308
RWRGLD

GOODLAND FORECAST AREA HOURLY WEATHER ROUNDUP
NATIONAL WEATHER SERVICE GOODLAND KS
700 AM MDT THU APR 17 2014

...OFFICIAL OBSERVATIONS...

CITY           SKY/WX    TMP DP  RH WIND       PRES   REMARKS
GOODLAND KS    CLOUDY    30  28  92 E8        30.22R FOG
HILL CITY KS   CLOUDY    33  25  72 NE10      30.28R
IMPERIAL NEB   CLOUDY    30  26  85 NE5       30.22R FOG
MCCOOK NEB     CLOUDY    31  25  78 E7        30.28R
AKRON CO       FOG       32  32 100 SE14      30.13S VSB 1/4
BURLINGTON CO  CLOUDY    32  29  88 SE7       30.18R FOG
LIMON CO       PTCLDY    33  32  96 S9        30.15R
$$

...UNOFFICIAL OBSERVATIONS...

CITY           SKY/WX    TMP DP  RH WIND       PRES   REMARKS
GOVE KS          N/A     33  32  96 E6          N/A
LENORA KS        N/A     31  32 100 N7          N/A
LEOTI KS         N/A     37  32  84 SE9         N/A
NORTON KS      CLOUDY    30  25  80 NE8       30.26R
OBERLIN KS     CLOUDY    30  27  86 NE7       30.26R
SHARON SPRINGS   N/A     34  31  88 E6          N/A
ST FRANCIS KS  CLOUDY    32  28  86 NE5       30.21R FOG
WAKEENEY KS      N/A     32  25  74 MISG        N/A
KIT CARSON CO    N/A     36  32  86 MISG        N/A
WRAY CO        CLOUDY   N/A N/A N/A SE6       30.20R FOG
$$



USA.gov is the U.S. government's official web portal to all federal, state and local government web resources and services.